Weather Roundup
Issued by NWS Chicago, IL

Home | Current Version | Previous Version | Graphics & Text | Print | Product List | Glossary On
Versions: 1 2 3 4 5 6 7 8 9 10 11 12 13 14 15 16 17 18 19 20 21 22 23 24 25 26 27 28 29 30 31 32 33 34 35 36 37 38 39 40 41 42 43 44 45 46 47 48 49 50
000
NZUS59 KLOT 040408
HRRLOT

CHICAGO AREA WEATHER ROUNDUP
NATIONAL WEATHER SERVICE CHICAGO/ROMEOVILLE IL
1100 PM CDT SUN MAY 03 2015

NOTE: "FAIR" INDICATES FEW OR NO CLOUDS BELOW 12,000 FEET WITH NO
SIGNIFICANT WEATHER AND/OR OBSTRUCTIONS TO VISIBILITY.

* THESE STATIONS ARE NOT UNDER NWS QUALITY CONTROL. THEY ALSO MAY NOT
  REPORT WEATHER SUCH AS PRECIPITATION OR FOG.

ILZ005-006-012>014-019>023-040500-
NORTHEAST ILLINOIS

CITY           SKY/WX    TMP DP  RH WIND       PRES   REMARKS
OHARE          PTCLDY    62  54  74 S10       29.92S
MIDWAY         PTCLDY    68  54  60 S9        29.94R
AURORA         MOCLDY    62  55  77 S8        29.93S
LANSING*       PTCLDY    62  52  69 S5        29.96R
JOLIET*        PTCLDY    71  50  47 S12       29.94S
WAUKEGAN       PTCLDY    61  56  83 S9        29.90F
DUPAGE AIRPORT PTCLDY    59  55  87 S7        29.93S
WHEELING       MOCLDY    65  53  65 S10       29.93R
KANKAKEE*      PTCLDY    67  48  50 S14       29.97R
MORRIS*        PTCLDY    69  48  46 S16       29.93R
LEWIS AIRPORT* CLEAR     61  54  77 S8        29.95R
NORTHERLY IS     N/A     67  50  54 S9          N/A
$$

WIZ051-052-058>065-066-070>072-040500-
SOUTHEAST WISCONSIN

CITY           SKY/WX    TMP DP  RH WIND       PRES   REMARKS
MILWAUKEE      MOCLDY    64  54  69 S10       29.89S
KENOSHA*       PTCLDY    62  56  80 S8        29.90F
RACINE*        PTCLDY    63  54  72 S7        29.91F
BURLINGTON     PTCLDY    57  54  91 S7        29.89F
WAUKESHA       MOCLDY    59  54  82 S6        29.90F
WEST BEND      CLOUDY    63  52  67 S8        29.88F
$$

INZ001>003-010>013-019-020-040500-
NORTHWEST INDIANA

CITY           SKY/WX    TMP DP  RH WIND       PRES   REMARKS
GARY*          MOCLDY    62  55  80 S3        29.96R
MICHIGAN CITY* NOT AVBL
RENSSELAER*    NOT AVBL
VALPARAISO     CLOUDY    69  44  40 S9        29.98R
$$

LMZ740>746-040500-
SOUTHERN LAKE MICHIGAN

STATION/POSITION TIME  SKY/WX   TEMP WIND        PRES    VSBY
                                AIR  DIR/SP/G
                 (UTC)          (F)  (DEG/KT/KT) (MB)    (MI)
HARRISON CRIB    0300            66  170/ 28/ 33   N/A
BURNHAM HARBOR   0400            67  180/  9/ 13   N/A
CALUMET HARBOR   0300            67  130/  4/  9   N/A
BURNS HARBOR     0300            70  170/  9/ 13 1014.6F
MICHIGAN CITY    0300                150/  8/ 11   N/A
$$

ABBREVIATIONS USED IN REMARKS
   TC - TEMPERATURE IN CELSIUS
  WCI - WIND CHILL INDEX
   HX - HEAT INDEX
  VSB - VISIBILITY
$$



USA.gov is the U.S. government's official web portal to all federal, state and local government web resources and services.